Вернуться в каталог

CZ-6A DEB

АктивенSSO
NORAD 56250·DEBRIS·🇨🇳 China

Запущен Nov 11, 2022 с Taiyuan Satellite Launch Center

Loading…

Ближайшие Пролёты (ближайшие 24 часа)

TLE

СвежийSource: Space-Track

Эпоха: Sep 14, 2026, 07:13 UTC

1 56250U 22151ABS 26257.30108627  .00001922  00000-0  52520-3 0  9999
2 56250  98.5549 287.1252 0089992  82.0102 279.1289 14.46067732183434

Отслеживайте CZ-6A DEB в реальном времени с AllMySat

Download on the App Store